FW2602 Weather Reports


Display with metric or nautical units.
time (UTC)temp
F
wind
direction
speed
MPH
gust
MPH
rain 1hr
in
rain 24hr
in
rain mn
in
humidity
%
barometer
mb
20260901103536 64 321 0.0 0.0 0.03 0.24 0.24 97 1014.6
20260901103036 64 321 0.0 0.0 0.03 0.24 0.24 97 1014.7
20260901102536 64 321 0.0 0.0 0.04 0.24 0.24 97 1014.7
20260901102036 64 40 0.0 0.0 0.05 0.24 0.24 97 1014.4
20260901101536 64 40 0.0 0.0 0.07 0.24 0.24 97 1014.4
20260901101035 64 314 0.0 0.0 0.07 0.24 0.24 97 1014.2
20260901100535 64 312 0.0 0.0 0.08 0.24 0.24 97 1014.2
20260901100036 64 312 0.0 0.0 0.08 0.24 0.24 97 1014.3
20260901095534 64 312 0.0 0.0 0.09 0.23 0.23 97 1014.3
20260901095035 64 312 0.0 0.0 0.09 0.23 0.23 97 1014.3
20260901094534 64 312 0.0 0.0 0.08 0.22 0.22 97 1014.2
20260901094033 64 312 0.0 0.0 0.09 0.22 0.22 97 1014.2
20260901093534 64 312 0.0 0.0 0.08 0.21 0.21 97 1014.3
20260901093034 64 290 0.0 0.0 0.08 0.21 0.21 97 1014.3
20260901092533 64 289 0.0 0.0 0.07 0.20 0.20 97 1014.3
20260901092033 64 283 0.0 0.0 0.06 0.18 0.18 97 1014.2
20260901091533 64 283 0.0 0.0 0.05 0.17 0.17 97 1014.2
20260901091032 64 263 0.0 0.0 0.05 0.17 0.17 97 1014.2
20260901090535 64 89 0.0 1.0 0.04 0.16 0.16 97 1014.2
20260901090031 64 335 0.0 0.0 0.05 0.16 0.16 97 1014.3
20260901085530 64 333 0.0 1.0 0.06 0.14 0.14 97 1014.3
20260901085030 64 288 0.0 1.0 0.06 0.14 0.14 97 1014.3
20260901084530 64 5 0.0 1.0 0.05 0.13 0.13 97 1014.2
20260901084031 64 302 0.0 1.0 0.06 0.13 0.13 97 1014.2
20260901083530 64 319 0.0 1.0 0.06 0.13 0.13 97 1014.3
20260901083031 64 6 0.0 1.0 0.12 0.13 0.13 97 1014.3
20260901082528 64 6 0.0 1.0 0.11 0.12 0.12 97 1014.3
20260901082028 64 6 0.0 4.0 0.11 0.12 0.12 97 1014.4
20260901081528 64 100 0.0 4.0 0.11 0.12 0.12 97 1014.3
20260901081027 64 15 0.0 0.0 0.11 0.12 0.12 97 1014.6
20260901080527 64 6 0.0 0.0 0.11 0.12 0.12 96 1014.7
20260901080026 64 6 0.0 0.0 0.11 0.11 0.11 96 1014.7
20260901075526 64 6 0.0 0.0 0.08 0.08 0.08 96 1014.7
20260901075026 64 6 0.0 0.0 0.08 0.08 0.08 96 1014.7
20260901074524 64 3 0.0 0.0 0.08 0.08 0.08 96 1014.8
20260901074025 64 355 0.0 0.0 0.07 0.07 0.07 96 1014.8
20260901073524 64 272 0.0 0.0 0.06 0.06 0.06 96 1014.8
20260901073028 64 273 0.0 0.0 0.01 0.01 0.01 96 1015.0
20260901072522 64 273 0.0 2.0 0.01 0.01 0.01 96 1015.0
20260901072022 64 273 0.0 2.0 0.01 0.01 0.01 96 1015.0
20260901071522 64 316 0.0 0.0 0.01 0.01 0.01 96 1015.0
20260901071022 64 316 0.0 1.0 0.01 0.01 0.01 95 1015.0
20260901070520 64 316 0.0 1.0 0.01 0.01 0.01 95 1015.0
20260901070020 64 302 0.0 0.0 0.00 0.00 0.00 95 1015.1
20260901065521 64 302 0.0 0.0 0.00 0.00 0.00 95 1015.1
20260901065019 64 302 0.0 0.0 0.00 0.00 0.00 95 1015.1
20260901064519 65 302 0.0 0.0 0.00 0.00 0.00 95 1015.3
20260901064021 64 302 0.0 0.0 0.00 0.00 0.00 95 1015.3
20260901063522 65 302 0.0 1.0 0.00 0.00 0.00 95 1015.2
20260901063027 64 302 0.0 1.0 0.00 0.00 0.00 95 1015.2
20260901062520 64 15 0.0 1.0 0.00 0.00 0.00 95 1015.3
20260901062016 64 14 0.0 2.0 0.00 0.00 0.00 95 1015.3
20260901061520 64 33 0.0 2.0 0.00 0.00 0.00 95 1015.4
20260901061016 64 30 0.0 2.0 0.00 0.00 0.00 95 1015.4
20260901060514 64 50 0.0 1.0 0.00 0.00 0.00 95 1015.5
20260901060014 64 48 0.0 1.0 0.00 0.00 0.00 95 1015.7
20260901055513 64 48 0.0 1.0 0.00 0.00 0.00 95 1015.7
20260901055013 64 49 0.0 1.0 0.00 0.00 0.00 95 1015.9
20260901054512 64 46 0.0 1.0 0.00 0.00 0.00 95 1015.8
20260901054011 64 46 0.0 1.0 0.00 0.00 0.00 95 1016.0
20260901053513 64 46 0.0 1.0 0.00 0.00 0.00 95 1016.1
20260901053016 64 70 0.0 1.0 0.00 0.00 0.00 95 1016.1
20260901052510 64 62 0.0 0.0 0.00 0.00 0.00 95 1016.1
20260901052009 64 67 0.0 0.0 0.00 0.00 0.00 95 1016.2
20260901051509 64 67 0.0 0.0 0.00 0.00 0.00 95 1016.3
20260901051011 64 67 0.0 0.0 0.00 0.00 0.00 95 1016.3
20260901050509 64 180 0.0 1.0 0.00 0.00 0.00 94 1016.3
20260901050009 64 61 0.0 2.0 0.00 0.00 0.00 94 1016.2
20260901045511 64 65 0.0 2.0 0.00 0.00 0.00 94 1016.3
20260901045009 64 58 0.0 3.0 0.00 0.00 0.00 95 1016.4
20260901044509 64 73 0.0 3.0 0.00 0.00 0.00 95 1016.2
20260901044007 64 74 0.0 6.0 0.00 0.00 0.00 94 1016.3
20260901043507 64 70 2.0 6.0 0.00 0.00 0.00 94 1016.3
20260901043008 64 90 2.0 5.0 0.00 0.00 0.00 94 1016.2
20260901042506 64 84 1.0 3.0 0.00 0.00 0.00 94 1016.2
20260901042006 64 140 1.0 3.0 0.00 0.00 0.00 94 1016.1
20260901041505 64 47 0.0 0.0 0.00 0.00 0.00 94 1016.3
20260901041007 64 47 0.0 0.0 0.00 0.00 0.00 94 1016.5
20260901040504 64 46 0.0 0.0 0.00 0.00 0.00 94 1016.6
20260901040003 64 47 0.0 0.0 0.00 0.00 0.00 94 1016.5
20260901035506 64 47 0.0 0.0 0.00 0.00 0.00 94 1016.5
20260901035003 64 47 0.0 1.0 0.00 0.00 0.00 94 1016.5
20260901034502 64 47 0.0 2.0 0.00 0.00 0.00 95 1016.4
20260901034003 64 302 0.0 2.0 0.00 0.00 0.00 95 1016.4
20260901033503 64 71 0.0 1.0 0.00 0.00 0.00 95 1016.4
20260901033003 64 71 0.0 1.0 0.00 0.00 0.00 94 1016.4
20260901032502 64 71 0.0 2.0 0.00 0.00 0.00 94 1016.4
20260901032002 64 65 0.0 2.0 0.00 0.00 0.00 94 1016.4
20260901031502 64 82 0.0 2.0 0.00 0.00 0.00 94 1016.3
20260901031002 64 57 0.0 2.0 0.00 0.00 0.00 94 1016.2
20260901030503 64 56 0.0 2.0 0.00 0.00 0.00 94 1016.2
20260901030004 64 337 0.0 4.0 0.00 0.00 0.00 94 1016.2
20260901025502 64 67 0.0 4.0 0.00 0.00 0.00 93 1016.2
20260901025100 64 46 0.0 2.0 0.00 0.00 0.00 93 1016.4
20260901024559 64 129 0.0 2.0 0.00 0.00 0.00 93 1016.6
20260901024057 65 74 0.0 1.0 0.00 0.00 0.00 93 1016.7
20260901023558 65 86 0.0 1.0 0.00 0.00 0.00 93 1016.8
20260901023057 65 86 0.0 2.0 0.00 0.00 0.00 93 1016.8
20260901022557 65 72 0.0 2.0 0.00 0.00 0.00 93 1016.9
20260901022057 64 63 0.0 3.0 0.00 0.00 0.00 94 1017.0
20260901021608 64 42 0.0 3.0 0.00 0.00 0.00 94 1017.0
20260901021057 64 37 0.0 1.0 0.00 0.00 0.00 94 1017.0
20260901020557 64 37 0.0 1.0 0.00 0.00 0.00 94 1017.0
20260901020112 64 37 0.0 0.0 0.00 0.00 0.00 94 1017.0
20260901015557 64 77 0.0 2.0 0.00 0.00 0.00 94 1017.1
20260901015056 64 78 0.0 2.0 0.00 0.00 0.00 94 1017.0
20260901014556 64 60 0.0 2.0 0.00 0.00 0.00 94 1017.0
20260901014056 64 135 0.0 1.0 0.00 0.00 0.00 94 1016.9
20260901013556 64 321 0.0 2.0 0.00 0.00 0.00 94 1016.9
20260901013059 64 330 0.0 2.0 0.00 0.00 0.00 94 1016.9
20260901012557 64 54 0.0 1.0 0.00 0.00 0.00 94 1017.0
20260901012055 64 56 0.0 1.0 0.00 0.00 0.00 94 1017.1
20260901011555 64 41 0.0 0.0 0.00 0.00 0.00 94 1017.1
20260901011055 64 41 0.0 0.0 0.00 0.00 0.00 94 1016.9
20260901010557 64 41 0.0 1.0 0.00 0.00 0.00 94 1016.9
20260901010055 64 41 0.0 1.0 0.00 0.00 0.00 94 1016.9
20260901005556 64 39 0.0 1.0 0.00 0.00 0.00 94 1016.9
20260901005059 64 38 0.0 3.0 0.00 0.00 0.00 94 1016.8
20260901004604 64 287 0.0 3.0 0.00 0.00 0.00 93 1016.8
20260901004057 64 29 0.0 2.0 0.00 0.00 0.00 93 1016.7
20260901003553 64 54 0.0 1.0 0.00 0.00 0.00 93 1016.8
20260901003054 64 44 0.0 1.0 0.00 0.00 0.00 93 1016.8
20260901002557 64 65 0.0 3.0 0.00 0.00 0.00 93 1016.8
20260901002053 64 45 0.0 3.0 0.00 0.00 0.00 93 1016.8
20260901001553 64 51 0.0 4.0 0.00 0.00 0.00 93 1016.8
20260901001052 64 73 1.0 4.0 0.00 0.00 0.00 93 1016.8
20260901000518 64 75 1.0 4.0 0.00 0.00 0.00 93 1016.8
20260901000015 64 108 1.0 4.0 0.00 0.00 0.00 93 1016.8
20260831235525 64 44 1.0 3.0 0.00 0.00 0.00 92 1016.9
20260831235010 64 62 0.0 2.0 0.00 0.00 0.00 92 1017.0
20260831234516 64 356 0.0 2.0 0.00 0.00 0.00 92 1016.9
20260831234021 64 55 0.0 1.0 0.00 0.00 0.00 92 1017.1
20260831233509 64 74 0.0 4.0 0.00 0.00 0.00 92 1017.1
20260831233016 64 81 0.0 4.0 0.00 0.00 0.00 92 1017.0
20260831232525 64 58 0.0 4.0 0.00 0.00 0.00 92 1017.0
20260831232012 64 94 0.0 4.0 0.00 0.00 0.00 92 1017.1
20260831231516 64 68 1.0 4.0 0.00 0.00 0.00 92 1017.1
20260831231022 64 100 0.0 3.0 0.00 0.00 0.00 92 1017.1
20260831230530 64 75 0.0 3.0 0.00 0.00 0.00 92 1017.1
20260831230011 64 108 1.0 3.0 0.00 0.00 0.00 92 1017.2
20260831225521 64 67 0.0 3.0 0.00 0.02 0.00 92 1017.3
20260831225022 64 68 0.0 3.0 0.00 0.02 0.00 92 1017.3
20260831224512 64 39 0.0 2.0 0.00 0.02 0.00 92 1017.4
20260831224019 64 39 0.0 2.0 0.00 0.02 0.00 92 1017.4
20260831223509 64 359 0.0 0.0 0.00 0.02 0.00 92 1017.4
20260831223016 64 280 0.0 0.0 0.00 0.02 0.00 92 1017.5
20260831222527 65 280 0.0 0.0 0.00 0.02 0.00 91 1017.5
20260831222013 65 280 0.0 0.0 0.00 0.02 0.00 91 1017.6
20260831221518 65 280 0.0 0.0 0.00 0.02 0.00 90 1017.5
20260831221020 65 280 0.0 0.0 0.00 0.02 0.00 89 1017.6
20260831220509 65 280 0.0 0.0 0.00 0.02 0.00 88 1017.7
20260831220017 66 280 0.0 0.0 0.00 0.02 0.00 88 1017.8
20260831215527 66 280 0.0 0.0 0.00 0.03 0.00 87 1017.8
20260831215012 66 280 0.0 0.0 0.00 0.03 0.00 86 1017.8
20260831214517 66 280 0.0 0.0 0.00 0.03 0.00 86 1017.8
20260831214019 66 280 0.0 0.0 0.00 0.03 0.00 86 1017.8
20260831213531 66 280 0.0 4.0 0.00 0.03 0.00 85 1017.7
20260831213010 66 289 2.0 4.0 0.00 0.03 0.00 84 1017.7
20260831212518 67 266 0.0 5.0 0.00 0.03 0.00 83 1017.8
20260831212020 67 276 1.0 5.0 0.00 0.03 0.00 85 1017.8
20260831211528 66 47 0.0 0.0 0.00 0.03 0.00 85 1017.7
20260831211013 67 47 0.0 0.0 0.00 0.03 0.00 86 1017.7
20260831210522 67 47 0.0 0.0 0.00 0.03 0.00 84 1017.7
20260831210007 67 48 0.0 7.0 0.00 0.03 0.00 86 1017.7
20260831205516 67 289 2.0 8.0 0.00 0.03 0.00 84 1017.9
20260831205022 68 273 1.0 8.0 0.00 0.03 0.00 81 1017.9
20260831204527 69 307 4.0 8.0 0.00 0.03 0.00 81 1017.8
20260831204014 69 347 0.0 0.0 0.00 0.03 0.00 83 1017.8
20260831203524 69 347 0.0 1.0 0.00 0.03 0.00 81 1017.7
20260831203023 69 347 0.0 1.0 0.00 0.03 0.00 79 1017.8
20260831202514 69 347 0.0 0.0 0.00 0.03 0.00 80 1017.6
20260831202015 69 347 0.0 0.0 0.00 0.03 0.00 82 1017.6
20260831201529 69 347 0.0 0.0 0.00 0.03 0.00 80 1017.5
20260831201011 69 347 0.0 1.0 0.00 0.03 0.00 83 1017.6
20260831200522 69 347 0.0 1.0 0.00 0.03 0.00 81 1017.6
20260831200029 69 358 0.0 1.0 0.00 0.03 0.00 79 1017.7
20260831195510 69 316 0.0 2.0 0.00 0.03 0.00 81 1017.9
20260831195017 69 335 0.0 4.0 0.00 0.03 0.00 79 1017.8
20260831194538 69 314 0.0 4.0 0.00 0.03 0.00 79 1017.9
20260831194011 70 298 1.0 3.0 0.00 0.03 0.00 78 1017.9
20260831193523 70 278 0.0 1.0 0.00 0.03 0.00 77 1017.9
20260831193020 70 23 0.0 5.0 0.00 0.03 0.00 78 1017.9
20260831192526 70 298 1.0 5.0 0.00 0.03 0.00 76 1018.0
20260831192013 70 288 1.0 4.0 0.00 0.03 0.00 76 1018.0
20260831191521 70 298 0.0 4.0 0.00 0.03 0.00 77 1018.1
20260831191022 70 271 0.0 3.0 0.00 0.03 0.00 76 1018.2
20260831190509 69 295 0.0 2.0 0.00 0.03 0.00 76 1018.2
20260831190017 69 314 0.0 3.0 0.00 0.03 0.00 77 1018.2
20260831185523 69 309 0.0 3.0 0.00 0.03 0.00 78 1018.3
20260831185013 68 312 0.0 3.0 0.00 0.03 0.00 80 1018.2
20260831184515 68 305 0.0 3.0 0.00 0.03 0.00 81 1018.4
20260831184018 67 300 0.0 1.0 0.00 0.03 0.00 81 1018.4
20260831183525 67 321 0.0 0.0 0.00 0.03 0.00 83 1018.5
20260831183009 67 321 0.0 0.0 0.00 0.03 0.00 83 1018.7
20260831182519 67 321 0.0 0.0 0.00 0.03 0.00 84 1018.7
20260831182018 67 296 0.0 4.0 0.00 0.03 0.00 80 1018.8
20260831181530 68 281 0.0 6.0 0.00 0.03 0.00 80 1018.7
20260831181009 68 290 2.0 12.0 0.00 0.03 0.00 79 1018.7
20260831180519 69 285 4.0 12.0 0.00 0.03 0.00 79 1018.8
20260831180021 70 269 2.0 7.0 0.00 0.03 0.00 81 1018.8
20260831175527 70 269 0.0 0.0 0.00 0.03 0.00 81 1018.7
20260831175013 70 297 0.0 1.0 0.00 0.03 0.00 81 1018.7
20260831174526 70 68 0.0 2.0 0.00 0.03 0.00 80 1018.6
20260831174020 71 68 0.0 3.0 0.00 0.03 0.00 80 1018.7
20260831173527 71 183 0.0 1.0 0.00 0.03 0.00 79 1018.9
20260831173011 70 278 0.0 1.0 0.00 0.03 0.00 80 1019.0
20260831172520 70 69 0.0 3.0 0.00 0.03 0.00 82 1019.0
20260831172022 69 9 0.0 4.0 0.00 0.03 0.00 82 1018.9
20260831171513 69 75 0.0 5.0 0.00 0.03 0.00 82 1018.9
20260831171018 69 70 0.0 5.0 0.00 0.03 0.00 84 1019.0
20260831170525 69 92 0.0 5.0 0.00 0.03 0.00 83 1019.1
20260831170008 69 69 0.0 3.0 0.00 0.03 0.00 84 1019.2
20260831165518 68 58 0.0 2.0 0.00 0.03 0.00 84 1019.3
20260831165015 68 39 0.0 3.0 0.00 0.03 0.00 85 1019.0
20260831164526 68 58 0.0 3.0 0.00 0.03 0.00 85 1019.2
20260831164008 68 54 0.0 1.0 0.00 0.03 0.00 84 1019.4
20260831163514 69 65 0.0 1.0 0.00 0.03 0.00 82 1019.5
20260831163031 69 63 0.0 3.0 0.00 0.03 0.00 82 1019.5
20260831162531 69 75 0.0 3.0 0.00 0.03 0.00 81 1019.5
20260831162011 69 51 0.0 1.0 0.00 0.03 0.00 81 1019.5
20260831161515 69 47 0.0 2.0 0.00 0.03 0.00 79 1019.6
20260831161025 69 88 0.0 2.0 0.00 0.03 0.00 81 1019.5
20260831160528 69 64 0.0 4.0 0.00 0.03 0.00 80 1019.5
20260831160013 69 65 1.0 6.0 0.00 0.03 0.00 80 1019.4
20260831155525 69 47 4.0 7.0 0.00 0.03 0.00 78 1019.5
20260831155023 70 96 0.0 1.0 0.00 0.03 0.00 78 1019.6
20260831154513 70 57 0.0 2.0 0.00 0.03 0.00 80 1019.6
20260831154015 69 53 0.0 2.0 0.00 0.03 0.00 83 1019.7
20260831153523 69 321 0.0 2.0 0.00 0.03 0.00 81 1019.6
20260831153011 69 67 0.0 3.0 0.00 0.03 0.00 80 1019.8
20260831152518 69 81 0.0 4.0 0.00 0.03 0.00 80 1019.8
20260831152025 69 37 0.0 1.0 0.00 0.03 0.00 80 1019.8
20260831151510 69 77 0.0 3.0 0.00 0.03 0.00 81 1019.8
20260831151014 69 65 0.0 6.0 0.00 0.03 0.00 82 1019.8
20260831150523 68 67 0.0 6.0 0.00 0.03 0.00 82 1019.7
20260831150015 68 14 0.0 4.0 0.00 0.03 0.00 82 1019.6
20260831145521 68 42 1.0 4.0 0.00 0.03 0.00 80 1019.4
20260831145023 68 347 1.0 5.0 0.00 0.03 0.00 81 1019.5
20260831144512 68 273 1.0 5.0 0.00 0.03 0.00 82 1019.4
20260831144018 68 291 1.0 5.0 0.00 0.03 0.00 83 1019.7
20260831143524 67 56 0.0 5.0 0.00 0.03 0.00 83 1019.9
20260831143115 67 69 1.0 3.0 0.00 0.03 0.00 83 1019.9
20260831142522 67 67 0.0 5.0 0.00 0.03 0.00 84 1019.8
20260831142025 67 13 0.0 5.0 0.00 0.03 0.00 84 1019.8
20260831141534 67 31 0.0 3.0 0.00 0.03 0.00 85 1019.8
20260831141018 67 82 0.0 2.0 0.00 0.03 0.00 86 1019.8
20260831140527 66 68 0.0 2.0 0.00 0.03 0.00 87 1019.8
20260831140031 66 69 0.0 2.0 0.00 0.03 0.00 89 1019.7
20260831135521 66 76 0.0 2.0 0.00 0.03 0.00 89 1019.7
20260831135008 66 43 0.0 0.0 0.00 0.03 0.00 89 1019.7
20260831134518 66 280 0.0 0.0 0.00 0.03 0.00 88 1019.8
20260831134021 66 280 0.0 0.0 0.00 0.03 0.00 88 1019.9
20260831133529 65 274 0.0 0.0 0.00 0.03 0.00 90 1019.8
20260831133029 65 274 0.0 0.0 0.00 0.03 0.00 90 1019.7
20260831132524 65 53 0.0 0.0 0.00 0.03 0.00 90 1019.8
20260831132010 64 304 0.0 0.0 0.00 0.03 0.00 91 1019.6
20260831131517 64 294 0.0 0.0 0.00 0.03 0.00 90 1019.5
20260831131021 64 294 0.0 0.0 0.00 0.03 0.00 91 1019.6
20260831130528 64 326 0.0 0.0 0.00 0.03 0.00 90 1019.6
20260831130012 64 326 0.0 0.0 0.00 0.03 0.00 91 1019.6
20260831125522 64 333 0.0 0.0 0.00 0.03 0.00 92 1019.7
20260831125011 64 260 0.0 0.0 0.00 0.03 0.00 92 1019.7
20260831124521 64 260 0.0 0.0 0.00 0.03 0.00 93 1019.8
20260831124026 64 260 0.0 0.0 0.00 0.03 0.00 93 1019.8
20260831123510 64 146 0.0 2.0 0.00 0.03 0.00 93 1019.8
20260831123020 64 276 0.0 2.0 0.00 0.03 0.00 94 1019.8
20260831122527 63 278 0.0 2.0 0.00 0.03 0.00 94 1019.8
20260831122014 63 295 0.0 2.0 0.00 0.03 0.00 94 1019.8
20260831121531 63 295 0.0 3.0 0.00 0.03 0.00 95 1019.8
20260831121002 63 298 0.0 3.0 0.00 0.03 0.00 95 1019.9
20260831120501 63 308 0.0 1.0 0.00 0.03 0.00 96 1019.8
20260831120103 63 308 0.0 1.0 0.00 0.03 0.00 97 1019.9
20260831115600 62 308 0.0 1.0 0.00 0.03 0.00 97 1020.0
20260831115100 62 312 0.0 0.0 0.00 0.03 0.00 97 1019.9
20260831114559 62 312 0.0 0.0 0.00 0.03 0.00 97 1019.9
20260831114101 62 311 0.0 0.0 0.00 0.03 0.00 97 1019.8
20260831113557 62 312 0.0 0.0 0.00 0.03 0.00 97 1019.8
20260831113058 61 312 0.0 0.0 0.00 0.03 0.00 97 1019.6
20260831112557 61 312 0.0 0.0 0.00 0.03 0.00 97 1019.6
20260831112056 61 312 0.0 0.0 0.00 0.03 0.00 97 1019.5
20260831111600 61 312 0.0 0.0 0.00 0.03 0.00 97 1019.5
20260831111055 61 312 0.0 0.0 0.00 0.03 0.00 97 1019.4
20260831110555 61 311 0.0 0.0 0.00 0.03 0.00 97 1019.4
20260831110058 61 311 0.0 0.0 0.00 0.03 0.00 97 1019.5
20260831105553 61 311 0.0 0.0 0.00 0.03 0.00 97 1019.4
20260831105054 61 311 0.0 0.0 0.00 0.03 0.00 97 1019.4
20260831104553 60 311 0.0 0.0 0.00 0.03 0.00 96 1019.3
20260831104053 60 311 0.0 0.0 0.00 0.03 0.00 96 1019.2